Time,TemperatureF,DewpointF,PressureIn,WindDirection,WindDirectionDegrees,WindSpeedMPH,WindSpeedGustMPH,Humidity,HourlyPrecipIn,Conditions,Clouds,dailyrainin,SoftwareType,DateUTC
2013-01-05 00:00:00,37.4,34.5,24.96,East,96,0.0,0.0,89,0.00,,---,0.01,VWS V13.01,2013-01-05 08:00:00,
2013-01-05 00:01:00,37.4,34.5,24.96,East,95,0.0,0.0,89,0.00,,---,0.01,VWS V13.01,2013-01-05 08:01:00,
2013-01-05 00:06:00,37.3,34.4,24.86,East,95,0.0,0.0,89,0.00,,---,0.00,VWS V13.01,2013-01-05 08:06:00,
2013-01-05 00:11:00,37.3,34.4,24.89,East,96,0.0,0.0,89,0.00,,---,0.00,VWS V13.01,2013-01-05 08:11:00,
2013-01-05 00:16:00,37.4,34.5,24.86,East,95,0.0,0.0,89,0.00,,---,0.00,VWS V13.01,2013-01-05 08:16:00,
2013-01-05 00:21:00,37.7,35.0,24.80,East,96,0.0,0.0,90,0.00,,---,0.00,VWS V13.01,2013-01-05 08:21:00,
2013-01-05 00:26:00,37.8,35.1,24.90,East,95,0.0,0.0,90,0.00,,---,0.00,VWS V13.01,2013-01-05 08:26:00,
2013-01-05 00:31:00,37.7,34.8,24.91,East,96,0.0,0.0,89,0.00,,---,0.00,VWS V13.01,2013-01-05 08:31:00,
2013-01-05 00:36:00,37.6,34.7,24.86,East,96,0.0,0.0,89,0.00,,---,0.00,VWS V13.01,2013-01-05 08:36:00,
2013-01-05 00:41:00,37.5,34.6,24.86,East,95,0.0,0.0,89,0.00,,---,0.00,VWS V13.01,2013-01-05 08:41:00,
2013-01-05 00:46:00,37.3,34.4,24.86,East,95,0.0,0.0,89,0.00,,---,0.00,VWS V13.01,2013-01-05 08:46:00,
2013-01-05 00:51:00,37.1,34.2,24.86,East,96,0.0,0.0,89,0.00,,---,0.00,VWS V13.01,2013-01-05 08:51:00,
2013-01-05 00:56:00,37.0,34.1,24.86,East,96,0.0,0.0,89,0.00,,---,0.00,VWS V13.01,2013-01-05 08:56:00,
2013-01-05 01:01:00,36.9,34.0,24.82,East,96,0.0,0.0,89,0.00,,---,0.00,VWS V13.01,2013-01-05 09:01:00,
2013-01-05 01:06:00,36.9,34.2,24.88,East,95,0.0,0.0,90,0.00,,---,0.00,VWS V13.01,2013-01-05 09:06:00,
2013-01-05 01:11:00,37.0,34.3,24.76,East,96,0.0,0.0,90,0.00,,---,0.00,VWS V13.01,2013-01-05 09:11:00,
2013-01-05 01:16:00,37.1,34.4,24.76,East,96,0.0,0.0,90,0.00,,---,0.00,VWS V13.01,2013-01-05 09:16:00,
2013-01-05 01:21:00,37.1,34.4,24.84,East,96,0.0,0.0,90,0.00,,---,0.00,VWS V13.01,2013-01-05 09:21:00,
2013-01-05 01:26:00,37.1,34.4,24.80,East,96,0.0,0.0,90,0.00,,---,0.00,VWS V13.01,2013-01-05 09:26:00,
2013-01-05 01:31:00,37.0,34.3,24.81,East,96,0.0,0.0,90,0.00,,---,0.00,VWS V13.01,2013-01-05 09:31:00,
2013-01-05 01:36:00,36.8,33.9,24.81,East,96,0.0,0.0,89,0.00,,---,0.00,VWS V13.01,2013-01-05 09:36:00,
2013-01-05 01:41:00,36.8,34.2,24.76,East,95,0.0,0.0,90,0.00,,---,0.00,VWS V13.01,2013-01-05 09:41:00,
2013-01-05 01:46:00,36.8,34.2,24.71,East,96,0.0,0.0,90,0.00,,---,0.00,VWS V13.01,2013-01-05 09:46:00,
2013-01-05 01:50:00,36.7,34.0,24.72,East,95,0.0,0.0,90,0.00,,---,0.00,VWS V13.01,2013-01-05 09:50:00,
2013-01-05 01:55:00,36.4,33.5,24.76,East,95,0.0,0.0,89,0.00,,---,0.00,VWS V13.01,2013-01-05 09:55:00,
2013-01-05 02:00:00,36.3,33.4,24.88,East,96,0.0,0.0,89,0.00,,---,0.00,VWS V13.01,2013-01-05 10:00:00,
2013-01-05 02:05:00,36.4,33.8,24.88,East,96,0.0,0.0,90,0.00,,---,0.00,VWS V13.01,2013-01-05 10:05:00,
2013-01-05 02:10:00,36.3,33.7,24.71,East,96,0.0,0.0,90,0.00,,---,0.00,VWS V13.01,2013-01-05 10:10:00,
2013-01-05 02:15:00,36.1,33.5,24.85,East,95,0.0,0.0,90,0.00,,---,0.00,VWS V13.01,2013-01-05 10:15:00,
2013-01-05 02:20:00,35.9,33.3,24.85,East,95,0.0,0.0,90,0.00,,---,0.00,VWS V13.01,2013-01-05 10:20:00,
2013-01-05 02:25:00,35.8,33.2,24.85,East,95,0.0,0.0,90,0.00,,---,0.00,VWS V13.01,2013-01-05 10:25:00,
2013-01-05 02:30:00,35.9,33.3,24.85,East,96,0.0,0.0,90,0.00,,---,0.00,VWS V13.01,2013-01-05 10:30:00,
2013-01-05 02:35:00,35.9,33.3,24.92,East,96,0.0,0.0,90,0.00,,---,0.00,VWS V13.01,2013-01-05 10:35:00,
2013-01-05 02:40:00,35.9,33.3,24.96,East,96,0.0,0.0,90,0.00,,---,0.00,VWS V13.01,2013-01-05 10:40:00,
2013-01-05 02:45:00,35.8,33.2,24.84,East,96,0.0,0.0,90,0.00,,---,0.00,VWS V13.01,2013-01-05 10:45:00,
2013-01-05 02:50:00,35.9,33.3,24.89,East,95,0.0,0.0,90,0.00,,---,0.00,VWS V13.01,2013-01-05 10:50:00,
2013-01-05 02:55:00,35.9,33.3,24.89,East,95,0.0,0.0,90,0.00,,---,0.00,VWS V13.01,2013-01-05 10:55:00,
2013-01-05 03:00:00,35.8,33.2,24.89,East,95,0.0,0.0,90,0.00,,---,0.00,VWS V13.01,2013-01-05 11:00:00,
2013-01-05 03:05:00,36.0,33.4,24.88,East,96,0.0,0.0,90,0.00,,---,0.00,VWS V13.01,2013-01-05 11:05:00,
2013-01-05 03:10:00,36.2,33.8,24.84,East,96,0.0,0.0,91,0.00,,---,0.00,VWS V13.01,2013-01-05 11:10:00,
2013-01-05 03:15:00,36.2,33.6,24.85,East,96,0.0,0.0,90,0.00,,---,0.00,VWS V13.01,2013-01-05 11:15:00,
2013-01-05 03:20:00,36.4,34.0,24.90,East,95,0.0,0.0,91,0.00,,---,0.00,VWS V13.01,2013-01-05 11:20:00,
2013-01-05 03:25:00,36.4,33.8,24.90,East,96,0.0,0.0,90,0.00,,---,0.00,VWS V13.01,2013-01-05 11:25:00,
2013-01-05 03:30:00,36.4,33.8,24.90,East,96,0.0,0.0,90,0.00,,---,0.00,VWS V13.01,2013-01-05 11:30:00,
2013-01-05 03:35:00,36.7,34.3,24.86,East,96,0.0,0.0,91,0.00,,---,0.00,VWS V13.01,2013-01-05 11:35:00,
2013-01-05 03:40:00,36.7,34.3,24.86,East,96,0.0,0.0,91,0.00,,---,0.00,VWS V13.01,2013-01-05 11:40:00,
2013-01-05 03:45:00,36.7,34.0,24.86,East,95,0.0,0.0,90,0.00,,---,0.00,VWS V13.01,2013-01-05 11:45:00,
2013-01-05 03:50:00,36.6,34.0,24.95,East,96,0.0,0.0,90,0.00,,---,0.00,VWS V13.01,2013-01-05 11:50:00,
2013-01-05 03:55:00,36.6,34.0,24.95,East,96,0.0,0.0,90,0.00,,---,0.00,VWS V13.01,2013-01-05 11:55:00,
2013-01-05 04:00:00,36.5,33.8,24.91,East,96,0.0,0.0,90,0.00,,---,0.00,VWS V13.01,2013-01-05 12:00:00,
2013-01-05 04:05:00,36.7,34.3,24.91,East,95,0.0,0.0,91,0.00,,---,0.00,VWS V13.01,2013-01-05 12:05:00,
2013-01-05 04:10:00,37.0,34.6,24.91,East,95,0.0,0.0,91,0.00,,---,0.00,VWS V13.01,2013-01-05 12:10:00,
2013-01-05 04:15:00,37.2,34.8,24.91,East,96,0.0,0.0,91,0.00,,---,0.00,VWS V13.01,2013-01-05 12:15:00,
2013-01-05 04:20:00,37.4,35.0,24.91,East,96,0.0,0.0,91,0.00,,---,0.00,VWS V13.01,2013-01-05 12:20:00,
2013-01-05 04:25:00,37.6,35.2,24.91,East,95,0.0,0.0,91,0.00,,---,0.00,VWS V13.01,2013-01-05 12:25:00,
2013-01-05 04:30:00,37.7,35.3,24.91,East,95,0.0,0.0,91,0.00,,---,0.00,VWS V13.01,2013-01-05 12:30:00,
2013-01-05 04:35:00,37.9,35.5,24.91,East,95,0.0,0.0,91,0.00,,---,0.00,VWS V13.01,2013-01-05 12:35:00,
2013-01-05 04:40:00,38.3,35.9,24.97,East,96,0.0,0.0,91,0.00,,---,0.00,VWS V13.01,2013-01-05 12:40:00,
2013-01-05 04:45:00,38.6,36.2,24.68,East,96,0.0,0.0,91,0.00,,---,0.00,VWS V13.01,2013-01-05 12:45:00,
2013-01-05 04:50:00,38.7,36.3,24.68,East,96,0.0,0.0,91,0.00,,---,0.00,VWS V13.01,2013-01-05 12:50:00,
2013-01-05 04:55:00,38.8,36.4,24.68,East,95,0.0,0.0,91,0.00,,---,0.00,VWS V13.01,2013-01-05 12:55:00,
2013-01-05 05:00:00,38.8,36.4,24.91,East,96,0.0,0.0,91,0.00,,---,0.00,VWS V13.01,2013-01-05 13:00:00,
2013-01-05 05:05:00,38.8,36.4,24.86,East,96,0.0,0.0,91,0.00,,---,0.00,VWS V13.01,2013-01-05 13:05:00,
2013-01-05 05:10:00,38.8,36.4,24.93,East,96,0.0,0.0,91,0.00,,---,0.00,VWS V13.01,2013-01-05 13:10:00,
2013-01-05 05:15:00,38.9,36.5,24.93,East,95,0.0,0.0,91,0.00,,---,0.00,VWS V13.01,2013-01-05 13:15:00,
2013-01-05 05:20:00,39.0,36.6,24.85,East,95,0.0,0.0,91,0.00,,---,0.00,VWS V13.01,2013-01-05 13:20:00,
2013-01-05 05:25:00,39.1,36.7,24.85,East,96,0.0,0.0,91,0.00,,---,0.00,VWS V13.01,2013-01-05 13:25:00,
2013-01-05 05:30:00,39.1,36.7,24.86,East,95,0.0,0.0,91,0.00,,---,0.00,VWS V13.01,2013-01-05 13:30:00,
2013-01-05 05:35:00,39.2,36.8,24.95,East,96,0.0,0.0,91,0.00,,---,0.00,VWS V13.01,2013-01-05 13:35:00,
2013-01-05 05:40:00,39.2,36.8,24.95,East,96,0.0,0.0,91,0.00,,---,0.00,VWS V13.01,2013-01-05 13:40:00,
2013-01-05 05:45:00,39.3,36.9,24.95,East,96,0.0,0.0,91,0.00,,---,0.00,VWS V13.01,2013-01-05 13:45:00,
2013-01-05 05:50:00,39.3,36.9,24.95,East,95,0.0,0.0,91,0.00,,---,0.00,VWS V13.01,2013-01-05 13:50:00,
2013-01-05 05:55:00,39.4,37.0,24.95,East,96,0.0,0.0,91,0.00,,---,0.00,VWS V13.01,2013-01-05 13:55:00,
2013-01-05 06:00:00,39.4,37.0,24.88,East,96,0.0,0.0,91,0.00,,---,0.00,VWS V13.01,2013-01-05 14:00:00,
2013-01-05 06:05:00,39.5,37.1,24.89,East,96,0.0,0.0,91,0.00,,---,0.00,VWS V13.01,2013-01-05 14:05:00,
2013-01-05 06:10:00,39.6,37.2,24.89,East,95,0.0,0.0,91,0.00,,---,0.00,VWS V13.01,2013-01-05 14:10:00,
2013-01-05 06:15:00,39.6,37.2,24.89,East,95,0.0,0.0,91,0.00,,---,0.00,VWS V13.01,2013-01-05 14:15:00,
2013-01-05 06:20:00,39.7,37.3,24.82,East,96,0.0,0.0,91,0.00,,---,0.00,VWS V13.01,2013-01-05 14:20:00,
2013-01-05 06:25:00,39.8,37.4,24.82,East,96,0.0,0.0,91,0.00,,---,0.00,VWS V13.01,2013-01-05 14:25:00,
2013-01-05 06:30:00,39.8,37.4,24.98,East,96,0.0,0.0,91,0.00,,---,0.00,VWS V13.01,2013-01-05 14:30:00,
2013-01-05 06:35:00,39.9,37.5,24.98,East,95,0.0,0.0,91,0.00,,---,0.00,VWS V13.01,2013-01-05 14:35:00,
2013-01-05 06:40:00,40.1,37.7,24.95,East,96,0.0,0.0,91,0.00,,---,0.00,VWS V13.01,2013-01-05 14:40:00,
2013-01-05 06:45:00,40.2,37.8,24.94,East,95,0.0,0.0,91,0.00,,---,0.00,VWS V13.01,2013-01-05 14:45:00,
2013-01-05 06:50:00,40.3,37.9,24.94,East,95,0.0,0.0,91,0.00,,---,0.00,VWS V13.01,2013-01-05 14:50:00,
2013-01-05 06:55:00,40.4,38.0,24.94,East,95,0.0,0.0,91,0.00,,---,0.00,VWS V13.01,2013-01-05 14:55:00,
2013-01-05 07:00:00,40.4,37.7,24.94,East,96,0.0,0.0,90,0.00,,---,0.00,VWS V13.01,2013-01-05 15:00:00,
2013-01-05 07:05:00,40.5,37.8,24.92,East,96,0.0,0.0,90,0.00,,---,0.00,VWS V13.01,2013-01-05 15:05:00,
2013-01-05 07:10:00,40.5,37.8,24.92,East,95,0.0,0.0,90,0.00,,---,0.00,VWS V13.01,2013-01-05 15:10:00,
2013-01-05 07:15:00,40.6,37.9,25.01,East,95,0.0,0.0,90,0.00,,---,0.00,VWS V13.01,2013-01-05 15:15:00,
2013-01-05 07:20:00,40.6,37.9,24.99,East,96,0.0,0.0,90,0.00,,---,0.00,VWS V13.01,2013-01-05 15:20:00,
2013-01-05 07:25:00,40.7,38.3,24.99,East,96,0.0,0.0,91,0.00,,---,0.00,VWS V13.01,2013-01-05 15:25:00,
2013-01-05 07:30:00,40.7,38.3,24.85,East,95,0.0,0.0,91,0.00,,---,0.00,VWS V13.01,2013-01-05 15:30:00,
2013-01-05 07:35:00,40.8,38.4,24.81,East,96,0.0,0.0,91,0.00,,---,0.00,VWS V13.01,2013-01-05 15:35:00,
2013-01-05 07:40:00,40.9,38.2,24.91,East,96,0.0,0.0,90,0.00,,---,0.00,VWS V13.01,2013-01-05 15:40:00,
2013-01-05 07:45:00,41.0,38.3,24.88,East,95,0.0,0.0,90,0.00,,---,0.00,VWS V13.01,2013-01-05 15:45:00,
2013-01-05 07:50:00,41.1,38.4,24.88,East,95,0.0,0.0,90,0.00,,---,0.00,VWS V13.01,2013-01-05 15:50:00,
2013-01-05 07:55:00,41.2,38.5,24.88,East,95,0.0,0.0,90,0.00,,---,0.00,VWS V13.01,2013-01-05 15:55:00,
2013-01-05 08:00:00,41.3,38.6,24.88,East,96,0.0,0.0,90,0.00,,---,0.00,VWS V13.01,2013-01-05 16:00:00,
2013-01-05 08:05:00,41.3,38.6,24.72,East,96,0.0,0.0,90,0.00,,---,0.00,VWS V13.01,2013-01-05 16:05:00,
2013-01-05 08:10:00,41.5,38.8,24.72,East,95,0.0,0.0,90,0.00,,---,0.00,VWS V13.01,2013-01-05 16:10:00,
2013-01-05 08:15:00,41.6,38.9,24.72,East,95,0.0,0.0,90,0.00,,---,0.00,VWS V13.01,2013-01-05 16:15:00,
2013-01-05 08:20:00,41.7,39.0,24.72,East,96,0.0,0.0,90,0.00,,---,0.00,VWS V13.01,2013-01-05 16:20:00,
2013-01-05 08:25:00,41.8,39.1,24.84,East,96,0.0,0.0,90,0.00,,---,0.00,VWS V13.01,2013-01-05 16:25:00,
2013-01-05 08:30:00,41.9,39.2,24.84,East,96,0.0,0.0,90,0.00,,---,0.00,VWS V13.01,2013-01-05 16:30:00,
2013-01-05 08:35:00,42.0,39.3,24.93,East,95,0.0,0.0,90,0.00,,---,0.00,VWS V13.01,2013-01-05 16:35:00,
2013-01-05 08:40:00,42.2,39.5,24.93,East,96,0.0,0.0,90,0.00,,---,0.00,VWS V13.01,2013-01-05 16:40:00,
2013-01-05 08:45:00,42.3,39.3,24.93,East,96,0.0,0.0,89,0.00,,---,0.00,VWS V13.01,2013-01-05 16:45:00,
2013-01-05 08:50:00,42.5,39.5,25.05,East,95,0.0,0.0,89,0.00,,---,0.00,VWS V13.01,2013-01-05 16:50:00,
2013-01-05 08:55:00,42.6,39.3,25.05,East,95,0.0,0.0,88,0.00,,---,0.00,VWS V13.01,2013-01-05 16:55:00,
2013-01-05 09:00:00,42.9,39.3,25.05,East,95,0.0,0.0,87,0.00,,---,0.00,VWS V13.01,2013-01-05 17:00:00,
2013-01-05 09:05:00,43.2,39.6,24.91,East,96,0.0,0.0,87,0.00,,---,0.00,VWS V13.01,2013-01-05 17:05:00,
2013-01-05 09:10:00,43.4,39.5,24.89,East,96,0.0,0.0,86,0.00,,---,0.00,VWS V13.01,2013-01-05 17:10:00,
2013-01-05 09:15:00,43.7,39.8,24.89,East,96,0.0,1.0,86,0.00,,---,0.00,VWS V13.01,2013-01-05 17:15:00,
2013-01-05 09:20:00,44.0,39.8,24.89,East,95,0.0,1.0,85,0.00,,---,0.00,VWS V13.01,2013-01-05 17:20:00,
2013-01-05 09:25:00,44.2,40.0,24.84,East,96,0.0,1.0,85,0.00,,---,0.00,VWS V13.01,2013-01-05 17:25:00,
2013-01-05 09:30:00,44.3,40.1,24.83,East,96,0.0,1.0,85,0.00,,---,0.00,VWS V13.01,2013-01-05 17:30:00,
2013-01-05 09:35:00,44.5,40.0,24.83,East,96,0.0,1.0,84,0.00,,---,0.00,VWS V13.01,2013-01-05 17:35:00,
2013-01-05 09:40:00,44.7,40.2,24.89,East,96,0.0,1.0,84,0.00,,---,0.00,VWS V13.01,2013-01-05 17:40:00,
2013-01-05 09:45:00,44.8,40.3,24.89,East,95,0.0,1.0,84,0.00,,---,0.00,VWS V13.01,2013-01-05 17:45:00,
2013-01-05 09:50:00,45.0,40.5,24.89,East,96,0.0,1.0,84,0.00,,---,0.00,VWS V13.01,2013-01-05 17:50:00,
2013-01-05 09:55:00,45.1,40.9,24.89,East,95,0.0,1.0,85,0.00,,---,0.00,VWS V13.01,2013-01-05 17:55:00,
2013-01-05 10:00:00,45.3,40.8,24.89,East,95,0.0,1.0,84,0.00,,---,0.00,VWS V13.01,2013-01-05 18:00:00,
2013-01-05 10:05:00,45.8,41.5,24.89,East,83,2.0,9.0,85,0.00,,---,0.00,VWS V13.01,2013-01-05 18:05:00,
2013-01-05 10:10:00,46.3,42.0,24.89,East,81,2.0,9.0,85,0.00,,---,0.00,VWS V13.01,2013-01-05 18:10:00,
2013-01-05 10:15:00,46.5,41.9,24.89,East,82,0.0,9.0,84,0.00,,---,0.00,VWS V13.01,2013-01-05 18:15:00,
2013-01-05 10:20:00,46.7,42.1,24.88,East,82,3.0,9.0,84,0.00,,---,0.00,VWS V13.01,2013-01-05 18:20:00,
2013-01-05 10:25:00,46.9,42.3,24.77,NE,49,3.0,9.0,84,0.00,,---,0.00,VWS V13.01,2013-01-05 18:25:00,
2013-01-05 10:30:00,46.9,42.0,24.77,NW,319,1.0,9.0,83,0.00,,---,0.00,VWS V13.01,2013-01-05 18:30:00,
2013-01-05 10:35:00,46.8,41.9,24.77,NNW,331,0.0,9.0,83,0.00,,---,0.00,VWS V13.01,2013-01-05 18:35:00,
2013-01-05 10:40:00,46.9,42.0,24.84,ESE,121,2.0,9.0,83,0.00,,---,0.00,VWS V13.01,2013-01-05 18:40:00,
2013-01-05 10:45:00,47.0,42.1,24.82,ESE,120,0.0,9.0,83,0.00,,---,0.00,VWS V13.01,2013-01-05 18:45:00,
2013-01-05 10:50:00,47.3,42.4,24.80,ESE,119,0.0,9.0,83,0.00,,---,0.00,VWS V13.01,2013-01-05 18:50:00,
2013-01-05 10:55:00,47.6,42.7,24.83,ESE,120,0.0,9.0,83,0.00,,---,0.00,VWS V13.01,2013-01-05 18:55:00,
2013-01-05 11:00:00,47.8,42.6,24.85,ESE,120,0.0,9.0,82,0.00,,---,0.00,VWS V13.01,2013-01-05 19:00:00,
2013-01-05 11:05:00,48.0,42.8,24.85,ESE,119,0.0,0.0,82,0.00,,---,0.00,VWS V13.01,2013-01-05 19:05:00,
2013-01-05 11:10:00,48.1,42.9,24.87,ESE,120,0.0,1.0,82,0.00,,---,0.00,VWS V13.01,2013-01-05 19:10:00,
2013-01-05 11:15:00,48.3,43.1,24.89,ESE,120,0.0,1.0,82,0.00,,---,0.00,VWS V13.01,2013-01-05 19:15:00,
2013-01-05 11:20:00,48.5,43.3,24.89,SE,138,0.0,3.0,82,0.00,,---,0.00,VWS V13.01,2013-01-05 19:20:00,
2013-01-05 11:25:00,48.7,43.5,24.81,SE,138,0.0,3.0,82,0.00,,---,0.00,VWS V13.01,2013-01-05 19:25:00,
2013-01-05 11:30:00,48.9,43.3,24.84,SE,138,0.0,3.0,81,0.00,,---,0.00,VWS V13.01,2013-01-05 19:30:00,
2013-01-05 11:35:00,49.2,43.6,24.83,SE,138,0.0,3.0,81,0.00,,---,0.00,VWS V13.01,2013-01-05 19:35:00,
2013-01-05 11:40:00,49.5,43.9,24.78,SE,138,0.0,3.0,81,0.00,,---,0.00,VWS V13.01,2013-01-05 19:40:00,
2013-01-05 11:45:00,49.7,44.1,24.79,SE,138,0.0,3.0,81,0.00,,---,0.00,VWS V13.01,2013-01-05 19:45:00,
2013-01-05 11:50:00,49.7,44.1,24.83,SE,138,0.0,3.0,81,0.00,,---,0.00,VWS V13.01,2013-01-05 19:50:00,
2013-01-05 11:55:00,49.5,43.9,24.74,SE,136,1.0,3.0,81,0.00,,---,0.00,VWS V13.01,2013-01-05 19:55:00,
2013-01-05 12:00:00,49.5,44.2,24.74,SE,137,0.0,3.0,82,0.00,,---,0.00,VWS V13.01,2013-01-05 20:00:00,
2013-01-05 12:05:00,49.2,44.0,24.82,ESE,102,5.0,7.0,82,0.00,,---,0.00,VWS V13.01,2013-01-05 20:05:00,
2013-01-05 12:10:00,49.2,44.3,24.78,ESE,104,2.0,7.0,83,0.00,,---,0.00,VWS V13.01,2013-01-05 20:10:00,
2013-01-05 12:15:00,48.9,44.0,24.80,ENE,76,5.0,9.0,83,0.00,,---,0.00,VWS V13.01,2013-01-05 20:15:00,
2013-01-05 12:20:00,48.7,43.5,24.81,ENE,75,3.0,9.0,82,0.00,,---,0.00,VWS V13.01,2013-01-05 20:20:00,
2013-01-05 12:25:00,48.7,43.5,24.81,NE,45,0.0,9.0,82,0.00,,---,0.00,VWS V13.01,2013-01-05 20:25:00,
2013-01-05 12:30:00,48.7,43.5,24.81,ENE,69,0.0,9.0,82,0.00,,---,0.00,VWS V13.01,2013-01-05 20:30:00,
2013-01-05 12:35:00,48.7,43.5,24.97,ENE,63,0.0,9.0,82,0.00,,---,0.00,VWS V13.01,2013-01-05 20:35:00,
2013-01-05 12:40:00,48.6,43.4,24.97,ENE,76,2.0,9.0,82,0.00,,---,0.00,VWS V13.01,2013-01-05 20:40:00,
2013-01-05 12:45:00,48.6,43.4,24.85,East,91,1.0,9.0,82,0.00,,---,0.00,VWS V13.01,2013-01-05 20:45:00,
2013-01-05 12:50:00,48.6,43.4,24.85,East,95,0.0,9.0,82,0.00,,---,0.00,VWS V13.01,2013-01-05 20:50:00,
2013-01-05 12:55:00,48.7,43.8,24.90,East,95,0.0,9.0,83,0.00,,---,0.00,VWS V13.01,2013-01-05 20:55:00,
2013-01-05 13:00:00,48.8,43.6,24.90,East,95,2.0,9.0,82,0.00,,---,0.00,VWS V13.01,2013-01-05 21:00:00,
2013-01-05 13:05:00,48.8,43.6,24.84,East,92,4.0,5.0,82,0.00,,---,0.00,VWS V13.01,2013-01-05 21:05:00,
2013-01-05 13:10:00,48.7,43.5,24.84,East,86,3.0,5.0,82,0.00,,---,0.00,VWS V13.01,2013-01-05 21:10:00,
2013-01-05 13:15:00,48.7,43.5,24.84,East,82,3.0,5.0,82,0.00,,---,0.00,VWS V13.01,2013-01-05 21:15:00,
2013-01-05 13:20:00,48.7,43.5,24.84,East,86,4.0,5.0,82,0.00,,---,0.00,VWS V13.01,2013-01-05 21:20:00,
2013-01-05 13:25:00,48.8,43.6,24.85,ENE,78,1.0,5.0,82,0.00,,---,0.00,VWS V13.01,2013-01-05 21:25:00,
2013-01-05 13:30:00,48.7,43.5,24.85,ENE,75,0.0,5.0,82,0.00,,---,0.00,VWS V13.01,2013-01-05 21:30:00,
2013-01-05 13:35:00,48.6,43.4,24.82,North,355,0.0,5.0,82,0.00,,---,0.00,VWS V13.01,2013-01-05 21:35:00,
2013-01-05 13:40:00,48.5,43.6,24.85,North,355,0.0,5.0,83,0.00,,---,0.00,VWS V13.01,2013-01-05 21:40:00,
2013-01-05 13:45:00,48.3,43.4,24.87,North,355,0.0,5.0,83,0.00,,---,0.00,VWS V13.01,2013-01-05 21:45:00,
2013-01-05 13:50:00,48.2,43.3,24.87,North,355,0.0,5.0,83,0.00,,---,0.00,VWS V13.01,2013-01-05 21:50:00,
2013-01-05 13:55:00,48.0,43.4,24.87,North,9,2.0,5.0,84,0.00,,---,0.00,VWS V13.01,2013-01-05 21:55:00,
2013-01-05 14:00:00,47.8,43.2,24.86,NNE,21,0.0,5.0,84,0.00,,---,0.00,VWS V13.01,2013-01-05 22:00:00,
2013-01-05 14:05:00,47.7,43.1,24.86,NNE,28,2.0,2.0,84,0.00,,---,0.00,VWS V13.01,2013-01-05 22:05:00,
2013-01-05 14:09:00,47.6,43.3,24.86,ENE,72,0.0,5.0,85,0.00,,---,0.00,VWS V13.01,2013-01-05 22:09:00,
2013-01-05 14:14:00,47.7,43.4,24.86,ENE,73,0.0,5.0,85,0.00,,---,0.00,VWS V13.01,2013-01-05 22:14:00,
2013-01-05 14:19:00,47.8,43.5,24.86,ENE,72,0.0,5.0,85,0.00,,---,0.00,VWS V13.01,2013-01-05 22:19:00,
2013-01-05 14:24:00,47.8,43.5,24.84,East,86,0.0,5.0,85,0.00,,---,0.00,VWS V13.01,2013-01-05 22:24:00,
2013-01-05 14:29:00,47.8,43.5,24.84,East,85,0.0,5.0,85,0.00,,---,0.00,VWS V13.01,2013-01-05 22:29:00,
2013-01-05 14:34:00,47.8,43.8,24.84,East,84,0.0,5.0,86,0.00,,---,0.00,VWS V13.01,2013-01-05 22:34:00,
2013-01-05 14:39:00,47.9,43.9,24.97,East,83,0.0,5.0,86,0.00,,---,0.01,VWS V13.01,2013-01-05 22:39:00,
2013-01-05 14:44:00,48.0,44.0,24.85,East,79,0.0,5.0,86,0.01,,---,0.01,VWS V13.01,2013-01-05 22:44:00,
2013-01-05 14:49:00,47.9,43.9,24.85,ENE,76,0.0,5.0,86,0.02,,---,0.02,VWS V13.01,2013-01-05 22:49:00,
2013-01-05 14:54:00,47.8,44.1,24.91,ENE,76,0.0,5.0,87,0.03,,---,0.03,VWS V13.01,2013-01-05 22:54:00,
2013-01-05 14:59:00,47.7,44.0,24.91,ENE,76,0.0,5.0,87,0.03,,---,0.03,VWS V13.01,2013-01-05 22:59:00,
2013-01-05 15:04:00,47.7,44.3,24.94,ENE,75,0.0,0.0,88,0.04,,---,0.04,VWS V13.01,2013-01-05 23:04:00,
2013-01-05 15:09:00,47.7,44.3,24.94,ENE,75,0.0,0.0,88,0.04,,---,0.04,VWS V13.01,2013-01-05 23:09:00,
2013-01-05 15:14:00,47.8,44.4,24.94,ENE,76,0.0,0.0,88,0.05,,---,0.05,VWS V13.01,2013-01-05 23:14:00,
2013-01-05 15:19:00,47.8,44.4,24.87,ENE,76,0.0,0.0,88,0.05,,---,0.05,VWS V13.01,2013-01-05 23:19:00,
2013-01-05 15:24:00,47.7,44.3,24.91,ENE,76,0.0,0.0,88,0.06,,---,0.06,VWS V13.01,2013-01-05 23:24:00,
2013-01-05 15:29:00,47.7,44.3,24.92,ENE,76,0.0,0.0,88,0.07,,---,0.07,VWS V13.01,2013-01-05 23:29:00,
2013-01-05 15:34:00,47.7,44.6,24.92,ENE,75,0.0,0.0,89,0.07,,---,0.07,VWS V13.01,2013-01-05 23:34:00,
2013-01-05 15:39:00,47.7,44.6,24.89,ENE,76,0.0,1.0,89,0.08,,---,0.08,VWS V13.01,2013-01-05 23:39:00,
2013-01-05 15:44:00,47.5,44.4,24.86,ENE,76,0.0,3.0,89,0.09,,---,0.09,VWS V13.01,2013-01-05 23:44:00,
2013-01-05 15:49:00,47.3,44.2,24.87,ENE,76,0.0,3.0,89,0.09,,---,0.09,VWS V13.01,2013-01-05 23:49:00,
2013-01-05 15:54:00,47.3,44.2,24.93,ENE,76,0.0,3.0,89,0.10,,---,0.10,VWS V13.01,2013-01-05 23:54:00,
2013-01-05 15:59:00,47.2,44.1,24.90,ENE,75,0.0,3.0,89,0.11,,---,0.11,VWS V13.01,2013-01-05 23:59:00,
2013-01-05 16:04:00,47.1,44.0,24.86,ENE,76,0.0,1.0,89,0.08,,---,0.11,VWS V13.01,2013-01-06 00:04:00,
2013-01-05 16:09:00,46.9,43.8,24.91,ENE,76,0.0,2.0,89,0.09,,---,0.12,VWS V13.01,2013-01-06 00:09:00,
2013-01-05 16:14:00,46.9,44.1,24.85,ENE,75,1.0,2.0,90,0.10,,---,0.13,VWS V13.01,2013-01-06 00:14:00,
2013-01-05 16:19:00,46.8,44.0,24.86,ENE,75,0.0,2.0,90,0.10,,---,0.13,VWS V13.01,2013-01-06 00:19:00,
2013-01-05 16:24:00,46.8,44.0,24.87,ENE,76,0.0,2.0,90,0.11,,---,0.14,VWS V13.01,2013-01-06 00:24:00,
2013-01-05 16:29:00,46.8,44.0,24.87,ENE,76,0.0,2.0,90,0.11,,---,0.15,VWS V13.01,2013-01-06 00:29:00,
2013-01-05 16:34:00,46.8,44.0,24.87,ENE,76,0.0,2.0,90,0.12,,---,0.15,VWS V13.01,2013-01-06 00:34:00,
2013-01-05 16:39:00,46.7,43.9,24.87,ENE,75,0.0,2.0,90,0.12,,---,0.15,VWS V13.01,2013-01-06 00:39:00,
2013-01-05 16:44:00,46.6,43.8,24.87,ENE,76,0.0,2.0,90,0.12,,---,0.15,VWS V13.01,2013-01-06 00:44:00,
2013-01-05 16:49:00,46.5,43.7,24.87,ENE,76,0.0,2.0,90,0.12,,---,0.15,VWS V13.01,2013-01-06 00:49:00,
2013-01-05 16:54:00,46.5,43.7,24.87,ENE,75,0.0,2.0,90,0.13,,---,0.16,VWS V13.01,2013-01-06 00:54:00,
2013-01-05 16:59:00,46.5,43.7,24.93,ENE,76,0.0,2.0,90,0.13,,---,0.16,VWS V13.01,2013-01-06 00:59:00,
2013-01-05 17:04:00,46.4,43.9,24.93,ENE,75,0.0,0.0,91,0.05,,---,0.16,VWS V13.01,2013-01-06 01:04:00,
2013-01-05 17:09:00,46.4,43.9,24.93,ENE,75,0.0,0.0,91,0.06,,---,0.17,VWS V13.01,2013-01-06 01:09:00,
2013-01-05 17:14:00,46.5,44.0,24.91,ENE,76,0.0,0.0,91,0.06,,---,0.17,VWS V13.01,2013-01-06 01:14:00,
2013-01-05 17:19:00,46.5,44.0,24.92,ENE,76,0.0,0.0,91,0.06,,---,0.17,VWS V13.01,2013-01-06 01:19:00,
2013-01-05 17:24:00,46.6,44.1,24.92,ENE,76,0.0,1.0,91,0.07,,---,0.18,VWS V13.01,2013-01-06 01:24:00,
2013-01-05 17:29:00,46.6,44.1,24.90,ENE,76,0.0,3.0,91,0.08,,---,0.19,VWS V13.01,2013-01-06 01:29:00,
2013-01-05 17:34:00,46.7,44.2,24.94,ENE,75,0.0,3.0,91,0.08,,---,0.19,VWS V13.01,2013-01-06 01:34:00,
2013-01-05 17:39:00,46.7,44.2,24.87,East,81,0.0,5.0,91,0.09,,---,0.20,VWS V13.01,2013-01-06 01:39:00,
2013-01-05 17:44:00,46.7,44.2,24.92,SSE,148,0.0,5.0,91,0.09,,---,0.20,VWS V13.01,2013-01-06 01:44:00,
2013-01-05 17:49:00,46.7,44.2,24.97,SE,132,3.0,5.0,91,0.10,,---,0.21,VWS V13.01,2013-01-06 01:49:00,
2013-01-05 17:54:00,46.7,44.2,24.86,ESE,123,3.0,5.0,91,0.10,,---,0.21,VWS V13.01,2013-01-06 01:54:00,
2013-01-05 17:59:00,46.6,44.1,24.86,ESE,105,0.0,6.0,91,0.10,,---,0.21,VWS V13.01,2013-01-06 01:59:00,
2013-01-05 18:04:00,46.5,44.0,24.89,SE,140,0.0,3.0,91,0.06,,---,0.22,VWS V13.01,2013-01-06 02:04:00,
2013-01-05 18:09:00,46.4,43.9,24.85,SE,130,4.0,5.0,91,0.06,,---,0.22,VWS V13.01,2013-01-06 02:09:00,
2013-01-05 18:14:00,46.3,43.5,24.85,SSE,155,1.0,7.0,90,0.07,,---,0.23,VWS V13.01,2013-01-06 02:14:00,
2013-01-05 18:19:00,46.3,43.5,24.90,SE,137,1.0,7.0,90,0.07,,---,0.23,VWS V13.01,2013-01-06 02:19:00,
2013-01-05 18:24:00,46.2,43.7,24.90,SE,139,0.0,9.0,91,0.07,,---,0.23,VWS V13.01,2013-01-06 02:24:00,
2013-01-05 18:29:00,46.2,43.7,24.90,SE,140,0.0,9.0,91,0.07,,---,0.23,VWS V13.01,2013-01-06 02:29:00,
2013-01-05 18:34:00,46.2,43.7,24.90,SSE,152,0.0,9.0,91,0.07,,---,0.23,VWS V13.01,2013-01-06 02:34:00,
2013-01-05 18:39:00,46.3,43.8,24.90,SE,141,0.0,10.0,91,0.08,,---,0.24,VWS V13.01,2013-01-06 02:39:00,
2013-01-05 18:44:00,46.3,43.8,24.91,SE,133,0.0,10.0,91,0.09,,---,0.25,VWS V13.01,2013-01-06 02:44:00,
2013-01-05 18:49:00,46.4,43.9,24.84,SE,133,0.0,10.0,91,0.09,,---,0.25,VWS V13.01,2013-01-06 02:49:00,
2013-01-05 18:54:00,46.4,43.9,24.90,SE,133,0.0,10.0,91,0.10,,---,0.26,VWS V13.01,2013-01-06 02:54:00,
2013-01-05 18:59:00,46.5,44.0,24.84,SE,133,0.0,10.0,91,0.11,,---,0.27,VWS V13.01,2013-01-06 02:59:00,
2013-01-05 19:04:00,46.5,44.0,24.84,SE,133,0.0,0.0,91,0.05,,---,0.27,VWS V13.01,2013-01-06 03:04:00,
2013-01-05 19:09:00,46.5,44.0,24.84,SE,133,0.0,0.0,91,0.06,,---,0.28,VWS V13.01,2013-01-06 03:09:00,
2013-01-05 19:14:00,46.6,44.1,24.88,SE,133,0.0,0.0,91,0.06,,---,0.28,VWS V13.01,2013-01-06 03:14:00,
2013-01-05 19:19:00,46.6,44.1,24.84,SE,133,0.0,1.0,91,0.06,,---,0.28,VWS V13.01,2013-01-06 03:19:00,
2013-01-05 19:24:00,46.6,44.1,24.84,SE,133,0.0,1.0,91,0.06,,---,0.28,VWS V13.01,2013-01-06 03:24:00,
2013-01-05 19:29:00,46.6,44.1,24.89,SE,133,0.0,1.0,91,0.07,,---,0.29,VWS V13.01,2013-01-06 03:29:00,
2013-01-05 19:34:00,46.5,44.0,24.86,SE,144,2.0,6.0,91,0.07,,---,0.29,VWS V13.01,2013-01-06 03:34:00,
2013-01-05 19:39:00,46.3,43.8,24.85,SE,146,1.0,10.0,91,0.07,,---,0.29,VWS V13.01,2013-01-06 03:39:00,
2013-01-05 19:44:00,46.2,43.4,24.88,SE,143,2.0,10.0,90,0.07,,---,0.29,VWS V13.01,2013-01-06 03:44:00,
2013-01-05 19:49:00,46.2,43.4,24.82,SE,144,2.0,10.0,90,0.07,,---,0.29,VWS V13.01,2013-01-06 03:49:00,
2013-01-05 19:54:00,46.3,43.5,24.84,SE,137,0.0,10.0,90,0.07,,---,0.29,VWS V13.01,2013-01-06 03:54:00,
2013-01-05 19:59:00,46.3,43.5,24.84,SSE,155,0.0,10.0,90,0.08,,---,0.31,VWS V13.01,2013-01-06 03:59:00,
2013-01-05 20:04:00,46.4,43.9,24.86,SSW,196,0.0,1.0,91,0.05,,---,0.32,VWS V13.01,2013-01-06 04:04:00,
2013-01-05 20:09:00,46.4,43.9,24.86,East,86,3.0,4.0,91,0.06,,---,0.33,VWS V13.01,2013-01-06 04:09:00,
2013-01-05 20:14:00,46.2,43.4,24.89,East,96,0.0,5.0,90,0.06,,---,0.33,VWS V13.01,2013-01-06 04:14:00,
2013-01-05 20:19:00,46.1,43.3,24.89,East,88,4.0,5.0,90,0.06,,---,0.33,VWS V13.01,2013-01-06 04:19:00,
2013-01-05 20:24:00,46.0,43.2,24.82,NE,55,4.0,12.0,90,0.06,,---,0.33,VWS V13.01,2013-01-06 04:24:00,
2013-01-05 20:29:00,45.9,43.1,24.91,SE,138,0.0,12.0,90,0.06,,---,0.33,VWS V13.01,2013-01-06 04:29:00,
2013-01-05 20:34:00,45.9,43.1,24.88,ESE,123,3.0,12.0,90,0.06,,---,0.33,VWS V13.01,2013-01-06 04:34:00,
2013-01-05 20:39:00,46.0,43.2,24.88,ESE,103,2.0,12.0,90,0.06,,---,0.33,VWS V13.01,2013-01-06 04:39:00,
2013-01-05 20:44:00,46.1,43.3,24.90,SE,130,1.0,12.0,90,0.06,,---,0.33,VWS V13.01,2013-01-06 04:44:00,
2013-01-05 20:49:00,46.1,43.3,24.92,SE,130,0.0,12.0,90,0.06,,---,0.33,VWS V13.01,2013-01-06 04:49:00,
2013-01-05 20:54:00,46.1,43.3,24.83,SE,130,0.0,12.0,90,0.06,,---,0.33,VWS V13.01,2013-01-06 04:54:00,
2013-01-05 20:59:00,46.1,43.3,24.90,SE,132,0.0,12.0,90,0.06,,---,0.33,VWS V13.01,2013-01-06 04:59:00,
2013-01-05 21:00:00,46.1,43.3,24.90,SE,137,0.0,12.0,90,0.06,,---,0.33,VWS V13.01,2013-01-06 05:00:00,
2013-01-05 21:01:00,46.2,43.4,24.92,SE,137,0.0,12.0,90,0.06,,---,0.33,VWS V13.01,2013-01-06 05:01:00,
2013-01-05 21:03:00,46.1,43.3,24.92,SE,137,0.0,0.0,90,0.02,,---,0.33,VWS V13.01,2013-01-06 05:03:00,
2013-01-05 21:06:00,46.2,43.4,24.92,SE,137,0.0,1.0,90,0.02,,---,0.33,VWS V13.01,2013-01-06 05:06:00,
2013-01-05 21:11:00,46.1,43.3,24.85,SE,135,0.0,2.0,90,0.02,,---,0.33,VWS V13.01,2013-01-06 05:11:00,
2013-01-05 21:16:00,46.0,43.2,24.89,SE,144,2.0,5.0,90,0.02,,---,0.33,VWS V13.01,2013-01-06 05:16:00,
2013-01-05 21:21:00,46.0,43.2,24.86,ESE,121,0.0,5.0,90,0.02,,---,0.33,VWS V13.01,2013-01-06 05:21:00,
2013-01-05 21:26:00,46.0,43.2,24.86,ESE,121,0.0,5.0,90,0.02,,---,0.33,VWS V13.01,2013-01-06 05:26:00,
2013-01-05 21:31:00,46.1,43.3,24.86,ESE,121,0.0,5.0,90,0.02,,---,0.33,VWS V13.01,2013-01-06 05:31:00,
2013-01-05 21:36:00,46.1,43.3,24.86,SSE,153,3.0,6.0,90,0.02,,---,0.33,VWS V13.01,2013-01-06 05:36:00,
2013-01-05 21:41:00,46.0,43.2,24.86,ESE,115,6.0,7.0,90,0.02,,---,0.33,VWS V13.01,2013-01-06 05:41:00,
2013-01-05 21:46:00,45.9,43.1,24.89,ENE,75,5.0,7.0,90,0.02,,---,0.33,VWS V13.01,2013-01-06 05:46:00,
2013-01-05 21:51:00,45.8,43.0,24.84,SSE,155,0.0,7.0,90,0.02,,---,0.33,VWS V13.01,2013-01-06 05:51:00,
2013-01-05 21:56:00,45.8,43.0,24.84,SSE,150,0.0,7.0,90,0.02,,---,0.33,VWS V13.01,2013-01-06 05:56:00,
2013-01-05 22:01:00,45.8,43.0,24.84,South,173,0.0,7.0,90,0.03,,---,0.34,VWS V13.01,2013-01-06 06:01:00,
2013-01-05 22:06:00,45.9,43.1,24.84,South,173,0.0,1.0,90,0.01,,---,0.34,VWS V13.01,2013-01-06 06:06:00,
2013-01-05 22:10:00,45.9,43.4,24.84,SW,226,2.0,4.0,91,0.01,,---,0.34,VWS V13.01,2013-01-06 06:10:00,
2013-01-05 22:16:00,45.9,43.4,24.84,WSW,246,0.0,4.0,91,0.01,,---,0.34,VWS V13.01,2013-01-06 06:16:00,
2013-01-05 22:21:00,45.9,43.4,24.97,WSW,245,0.0,4.0,91,0.01,,---,0.34,VWS V13.01,2013-01-06 06:21:00,
2013-01-05 22:26:00,45.8,43.3,24.85,WSW,246,0.0,4.0,91,0.01,,---,0.34,VWS V13.01,2013-01-06 06:26:00,
2013-01-05 22:31:00,45.8,43.3,24.85,WSW,238,0.0,4.0,91,0.01,,---,0.34,VWS V13.01,2013-01-06 06:31:00,
2013-01-05 22:35:00,45.8,43.3,24.92,SE,128,0.0,5.0,91,0.01,,---,0.34,VWS V13.01,2013-01-06 06:35:00,
2013-01-05 22:40:00,45.7,43.2,24.91,SE,143,0.0,5.0,91,0.01,,---,0.34,VWS V13.01,2013-01-06 06:40:00,
2013-01-05 22:45:00,45.6,42.8,24.91,SE,138,3.0,7.0,90,0.01,,---,0.34,VWS V13.01,2013-01-06 06:45:00,
2013-01-05 22:50:00,45.5,42.7,24.91,SE,130,0.0,13.0,90,0.01,,---,0.34,VWS V13.01,2013-01-06 06:50:00,
2013-01-05 22:55:00,45.6,42.8,24.91,SE,135,0.0,13.0,90,0.02,,---,0.35,VWS V13.01,2013-01-06 06:55:00,
2013-01-05 23:00:00,45.6,42.8,24.92,West,281,2.0,13.0,90,0.02,,---,0.35,VWS V13.01,2013-01-06 07:00:00,
2013-01-05 23:05:00,45.7,42.9,24.92,WNW,287,0.0,3.0,90,0.02,,---,0.36,VWS V13.01,2013-01-06 07:05:00,
2013-01-05 23:10:00,45.7,42.9,24.92,South,182,0.0,3.0,90,0.02,,---,0.36,VWS V13.01,2013-01-06 07:10:00,
2013-01-05 23:15:00,45.7,42.9,24.92,SE,137,5.0,13.0,90,0.02,,---,0.36,VWS V13.01,2013-01-06 07:15:00,
2013-01-05 23:20:00,45.6,42.8,24.93,SE,142,4.0,13.0,90,0.02,,---,0.36,VWS V13.01,2013-01-06 07:20:00,
2013-01-05 23:25:00,45.6,42.8,24.93,SSE,156,4.0,13.0,90,0.02,,---,0.36,VWS V13.01,2013-01-06 07:25:00,
2013-01-05 23:30:00,45.6,42.8,24.93,SSE,153,6.0,13.0,90,0.02,,---,0.36,VWS V13.01,2013-01-06 07:30:00,
2013-01-05 23:35:00,45.5,42.7,24.88,SSE,163,3.0,15.0,90,0.02,,---,0.36,VWS V13.01,2013-01-06 07:35:00,
2013-01-05 23:40:00,45.5,42.7,24.89,SE,138,3.0,15.0,90,0.02,,---,0.36,VWS V13.01,2013-01-06 07:40:00,
2013-01-05 23:45:00,45.5,42.7,24.88,SSE,156,8.0,15.0,90,0.03,,---,0.37,VWS V13.01,2013-01-06 07:45:00,
2013-01-05 23:50:00,45.4,42.6,24.88,SSE,156,5.0,16.0,90,0.03,,---,0.37,VWS V13.01,2013-01-06 07:50:00,
2013-01-05 23:55:00,45.4,42.6,24.85,ESE,121,0.0,16.0,90,0.03,,---,0.37,VWS V13.01,2013-01-06 07:55:00,